Wisconsin Rapids, WI

9:57 AM CDT on May 25, 2018 (GMT -0500)
Alexander Field South Wood County

Weather History for KISW - October, 2012

Change the Weather History Date:

Saturday, October 27, 2012

  Actual Average Record
Temperature  
Mean Temperature 34 °F -  
Max Temperature 44 °F 55 °F 77 °F (1948)
Min Temperature 25 °F 34 °F 14 °F (1976)
Degree Days  
Heating Degree Days 31    
Moisture  
Dew Point 19 °F    
Average Humidity 58    
Maximum Humidity 88    
Minimum Humidity 31    
Precipitation  
Precipitation 0.00 in - - ()
Sea Level Pressure  
Sea Level Pressure 30.37 in    
Wind  
Wind Speed 3 mph (NW)    
Max Wind Speed 10 mph    
Max Gust Speed 17 mph    
Visibility 10 miles    
Events      
Averages and records for this station are not official NWS values.
T = Trace of Precipitation, MM = Missing Value Source: NWS Daily Summary

Daily Weather History Graph

Daily Weather History Graph

Search for Another Location

Airport or City:

Astronomy

Oct. 27, 2012 Rise Set
Actual Time 7:30 AM CDT 5:55 PM CDT
Civil Twilight 7:00 AM CDT 6:25 PM CDT
Nautical Twilight 6:26 AM CDT 6:59 PM CDT
Astronomical Twilight 5:52 AM CDT 7:32 PM CDT
Moon 4:43 PM CDT (10/27) 5:22 AM CDT (10/27)
Length of Visible Light 11h 24m
Length of Day
10h 24m
Waxing Gibbous, 96% of the Moon is Illuminated
Oct 27
Waxing Gibbous
Oct 29
Full
Nov 6
Last Quarter
Nov 13
New
Nov 20
First Quarter

Hourly Weather History & Observations

Time (CDT) Temp. Windchill Dew Point Humidity Pressure Visibility Wind Dir Wind Speed Gust Speed Precip Events Conditions
12:54 AM 30.0 °F - 24.1 °F 79% 30.36 in 10.0 mi Calm Calm - N/A   Mostly Cloudy
1:54 AM 28.0 °F - 21.9 °F 78% 30.36 in 10.0 mi Calm Calm - N/A   Mostly Cloudy
2:54 AM 28.0 °F - 24.1 °F 85% 30.36 in 10.0 mi Calm Calm - N/A   Overcast
3:54 AM 30.9 °F 27.5 °F 25.0 °F 79% 30.35 in 10.0 mi West 3.5 mph - N/A   Overcast
4:54 AM 32.0 °F 28.7 °F 24.1 °F 73% 30.36 in 10.0 mi WNW 3.5 mph - N/A   Overcast
5:54 AM 30.0 °F 25.2 °F 23.0 °F 75% 30.37 in 10.0 mi WNW 4.6 mph - N/A   Mostly Cloudy
6:54 AM 28.9 °F 25.2 °F 21.9 °F 75% 30.39 in 10.0 mi NW 3.5 mph - N/A   Clear
7:54 AM 25.0 °F - 21.9 °F 88% 30.41 in 10.0 mi Calm Calm - N/A   Clear
9:54 AM 37.9 °F 34.4 °F 19.0 °F 47% 30.40 in 10.0 mi North 4.6 mph - N/A   Clear
10:54 AM 39.9 °F 33.4 °F 15.1 °F 36% 30.40 in 10.0 mi NW 10.4 mph 16.1 mph N/A   Clear
11:54 AM 41.0 °F 34.7 °F 12.9 °F 32% 30.39 in 10.0 mi NNW 10.4 mph - N/A   Clear
12:54 PM 42.1 °F 37.7 °F 12.9 °F 31% 30.37 in 10.0 mi NNW 6.9 mph - N/A   Clear
1:54 PM 42.1 °F 36.1 °F 14.0 °F 32% 30.36 in 10.0 mi WNW 10.4 mph 17.3 mph N/A   Clear
2:54 PM 43.0 °F 38.8 °F 15.1 °F 32% 30.34 in 10.0 mi NW 6.9 mph 16.1 mph N/A   Clear
3:54 PM 43.0 °F 37.7 °F 14.0 °F 31% 30.34 in 10.0 mi NNW 9.2 mph - N/A   Clear
4:54 PM 41.0 °F 37.1 °F 16.0 °F 36% 30.34 in 10.0 mi NW 5.8 mph - N/A   Clear
5:54 PM 37.9 °F - 16.0 °F 41% 30.34 in 10.0 mi Calm Calm - N/A   Clear
6:54 PM 33.1 °F - 19.9 °F 59% 30.36 in 10.0 mi Calm Calm - N/A   Clear
7:54 PM 33.1 °F - 21.0 °F 61% 30.36 in 10.0 mi Calm Calm - N/A   Clear
8:54 PM 33.1 °F - 24.1 °F 70% 30.37 in 10.0 mi Calm Calm - N/A   Clear
9:54 PM 32.0 °F - 21.9 °F 66% 30.37 in 10.0 mi Calm Calm - N/A   Clear
11:54 PM 28.0 °F - 21.0 °F 75% 30.39 in 10.0 mi Calm Calm - N/A   Clear